Regional Weather Roundup
Issued by NWS

Home | Current Version | Previous Version | Graphics & Text | Print | Product List | Glossary On
Versions: 1 2 3 4 5 6 7 8 9 10 11 12 13 14 15 16 17 18 19 20 21 22 23 24 25 26 27 28 29 30 31 32 33 34 35 36 37 38 39 40 41 42 43 44 45 46 47 48 49 50
000
ASUS43 KLSX 190059
RWRMO

WEATHER SUMMARY FOR MISSOURI
NATIONAL WEATHER SERVICE SPRINGFIELD MO
800 PM CDT SAT APR 18 2015

NOTE: "FAIR" INDICATES FEW OR NO CLOUDS BELOW 12,000 FEET WITH NO
       SIGNIFICANT WEATHER AND/OR OBSTRUCTIONS TO VISIBILITY.
       CURRENT SKY AND/OR WEATHER CONDITIONS ARE NOT AVAILABLE FOR
       CHILLICOTHE AND FARMINGTON.

MOZ001>031-035>038-043-044-053-054-190200-
...NORTHERN AND WESTERN MISSOURI...

CITY           SKY/WX    TMP DP  RH WIND       PRES   REMARKS
KANSAS CTY INT MOCLDY    61  58  90 SE7       29.83F
KANSAS C DTWN  MOCLDY    64  57  78 SE6       29.83F
LEE`S SUMMIT   PTCLDY    62  58  86 SE6       29.84F
ST JOSEPH      CLOUDY    62  58  86 SE7       29.84S
CHILLICOTHE      N/A     63  60  90 SE6       29.86S
KIRKSVILLE     CLOUDY    61  59  93 E7        29.87F

$$
MOZ066>068-077>081-088>096-101>105-190200-
...SOUTHWEST MISSOURI...

CITY           SKY/WX    TMP DP  RH WIND       PRES   REMARKS
SPRINGFIELD    CLEAR     64  57  78 E5        29.83F
JOPLIN         PTCLDY    65  58  78 E6        29.83S

$$
MOZ032>034-039>042-045>050-055>058-069>072-190200-
...CENTRAL MISSOURI...

CITY           SKY/WX    TMP DP  RH WIND       PRES   REMARKS
COLUMBIA       CLOUDY    63  59  87 E5        29.87F
JEFFERSON CITY CLOUDY    66  60  81 E3        29.86F
ROLLA          LGT RAIN  64  59  83 N10       29.86F
SEDALIA        CLOUDY    62  59  90 CALM      29.86F
OSAGE BEACH    CLOUDY    63  57  82 CALM      29.85F

$$
MOZ051-052-059>065-190200-
...EAST CENTRAL MISSOURI...

CITY           SKY/WX    TMP DP  RH WIND       PRES   REMARKS
ST LOUIS INTL  CLOUDY    74  56  53 E8        29.88R
SPIRIT OF STL  CLOUDY    72  57  59 E5        29.85S
ST CHARLES     CLOUDY    72  58  61 E8        29.87R

$$
MOZ072>076-082>087-097>100-106>115-190200-
...SOUTH CENTRAL AND SOUTHEAST MISSOURI...

CITY           SKY/WX    TMP DP  RH WIND       PRES   REMARKS
CAPE GIRARDEAU MOCLDY    69  61  75 CALM      29.84F
FARMINGTON     MOCLDY    70  55  60 SE5       29.91S
POPLAR BLUFF   MOCLDY    70  62  76 CALM      29.84S
WEST PLAINS    MOCLDY    69  55  60 SE9       29.86F

$$



USA.gov is the U.S. government's official web portal to all federal, state and local government web resources and services.